Location: Corcelles
(46.1547°N, 4.7234°E)
Time: 09:34:06
(UTC+00:00)

Cosmos 1733 Rocket - Pass Details

Date: 14 July 2020
Orbit: 604 x 628 km, 82.5° (Epoch: 05 August)

Event Time Altitude Azimuth Distance (km) Brightness Sun altitude
Exits shadow 01:29:33 17° 144° (SE) 1,535 4.8 -18.3°
Maximum altitude 01:32:10 32° 91° (E) 1,041 4.4 -18.2°
Drops below altitude 10° 01:36:02 10° 28° (NNE) 1,961 6.9 -17.9°
Sets 01:38:24 0° 18° (NNE) 2,871 8.1 -17.7°
